Lincoln, CA

2:32 AM PDT on April 29, 2017 (GMT -0700)
Lincoln Regional-Harder

Weather History for KLHM - May, 2013

Change the Weather History Date:

Wednesday, May 15, 2013

  Actual Average (KAUN) Record (KAUN)
Temperature  
Mean Temperature 68 °F -  
Max Temperature 80 °F 77 °F 96 °F (2008)
Min Temperature 55 °F 51 °F 37 °F (2011)
Cooling Degree Days 2    
Growing Degree Days 18 (Base 50)    
Moisture  
Dew Point 43 °F    
Average Humidity 42    
Maximum Humidity 63    
Minimum Humidity 24    
Precipitation  
Precipitation 0.00 in - - ()
Sea Level Pressure  
Sea Level Pressure 29.94 in    
Wind  
Wind Speed 11 mph (SSE)    
Max Wind Speed 20 mph    
Max Gust Speed 25 mph    
Visibility 10 miles    
Events      
Averages and records for this station are not official NWS values.
T = Trace of Precipitation, MM = Missing Value Source: NWS Daily Summary

Daily Weather History Graph

Daily Weather History Graph

Search for Another Location

Airport or City:

Trip Planner

Search our weather history database for the weather conditions in past years. The results will help you decide how hot, cold, wet, or windy it might be!

Date:

Astronomy

May. 15, 2013 Rise Set
Actual Time 5:52 AM PDT 8:11 PM PDT
Civil Twilight 5:22 AM PDT 8:41 PM PDT
Nautical Twilight 4:45 AM PDT 9:18 PM PDT
Astronomical Twilight 4:04 AM PDT 9:59 PM PDT
Moon 10:32 AM PDT (5/15) 12:01 AM PDT (5/15)
Length of Visible Light 15h 19m
Length of Day
14h 18m
Waxing Crescent, 28% of the Moon is Illuminated
May 15
Waxing Crescent
May 17
First Quarter
May 24
Full
May 31
Last Quarter
Jun 8
New

Hourly Weather History & Observations

Time (PDT) Temp. Dew Point Humidity Pressure Visibility Wind Dir Wind Speed Gust Speed Precip Events Conditions
12:15 AM 64.4 °F 44.6 °F 49% 29.89 in 10.0 mi SSE 10.4 mph - N/A   Clear
12:35 AM 64.4 °F 44.6 °F 49% 29.90 in 10.0 mi SSE 11.5 mph - N/A   Clear
1:15 AM 62.6 °F 44.6 °F 52% 29.90 in 10.0 mi SSE 13.8 mph 18.4 mph N/A   Clear
1:35 AM 62.6 °F 44.6 °F 52% 29.90 in 10.0 mi SSE 10.4 mph - N/A   Clear
1:55 AM 60.8 °F 42.8 °F 52% 29.90 in 10.0 mi SSE 9.2 mph 18.4 mph N/A   Clear
2:15 AM 60.8 °F 42.8 °F 52% 29.90 in 10.0 mi SE 12.7 mph - N/A   Clear
2:35 AM 60.8 °F 42.8 °F 52% 29.90 in 10.0 mi SSE 10.4 mph - N/A   Clear
2:55 AM 60.8 °F 42.8 °F 52% 29.89 in 10.0 mi SE 11.5 mph - N/A   Clear
3:15 AM 60.8 °F 42.8 °F 52% 29.89 in 10.0 mi SSE 16.1 mph - N/A   Clear
3:35 AM 59.0 °F 42.8 °F 55% 29.90 in 10.0 mi SE 19.6 mph 25.3 mph N/A   Clear
3:55 AM 59.0 °F 42.8 °F 55% 29.91 in 10.0 mi SSE 13.8 mph 23.0 mph N/A   Clear
4:15 AM 57.2 °F 42.8 °F 59% 29.91 in 10.0 mi SSE 13.8 mph - N/A   Clear
4:35 AM 57.2 °F 42.8 °F 59% 29.91 in 10.0 mi SE 13.8 mph 19.6 mph N/A   Clear
4:55 AM 57.2 °F 42.8 °F 59% 29.92 in 10.0 mi SE 12.7 mph - N/A   Clear
5:15 AM 57.2 °F 42.8 °F 59% 29.92 in 10.0 mi SE 15.0 mph - N/A   Clear
5:55 AM 55.4 °F 42.8 °F 63% 29.93 in 10.0 mi SE 10.4 mph - N/A   Clear
6:15 AM 55.4 °F 42.8 °F 63% 29.94 in 10.0 mi SE 9.2 mph - N/A   Clear
6:35 AM 55.4 °F 42.8 °F 63% 29.95 in 10.0 mi SSE 11.5 mph - N/A   Clear
6:55 AM 57.2 °F 42.8 °F 59% 29.95 in 10.0 mi SE 10.4 mph - N/A   Clear
7:15 AM 57.2 °F 41.0 °F 55% 29.96 in 10.0 mi SSE 16.1 mph 20.7 mph N/A   Clear
7:35 AM 59.0 °F 42.8 °F 55% 29.96 in 10.0 mi SSE 15.0 mph - N/A   Clear
7:55 AM 59.0 °F 42.8 °F 55% 29.97 in 10.0 mi SSE 12.7 mph - N/A   Clear
8:15 AM 60.8 °F 42.8 °F 52% 29.97 in 10.0 mi SSE 12.7 mph - N/A   Clear
8:35 AM 60.8 °F 42.8 °F 52% 29.98 in 10.0 mi SSE 15.0 mph - N/A   Clear
8:55 AM 62.6 °F 41.0 °F 45% 29.98 in 10.0 mi SE 15.0 mph - N/A   Clear
9:15 AM 62.6 °F 41.0 °F 45% 29.98 in 10.0 mi SE 10.4 mph - N/A   Clear
9:35 AM 66.2 °F 41.0 °F 40% 29.98 in 10.0 mi SSE 12.7 mph - N/A   Clear
9:55 AM 68.0 °F 41.0 °F 37% 29.98 in 10.0 mi SSE 11.5 mph 17.3 mph N/A   Clear
10:15 AM 68.0 °F 41.0 °F 37% 29.98 in 10.0 mi SSE 10.4 mph - N/A   Clear
10:35 AM 69.8 °F 41.0 °F 35% 29.98 in 10.0 mi SE 11.5 mph 20.7 mph N/A   Clear
10:55 AM 71.6 °F 41.0 °F 33% 29.98 in 10.0 mi SSE 13.8 mph 18.4 mph N/A   Clear
11:15 AM 71.6 °F 41.0 °F 33% 29.98 in 10.0 mi SSE 13.8 mph - N/A   Clear
11:35 AM 73.4 °F 42.8 °F 33% 29.98 in 10.0 mi South 12.7 mph 18.4 mph N/A   Clear
11:55 AM 73.4 °F 42.8 °F 33% 29.99 in 10.0 mi South 15.0 mph 18.4 mph N/A   Clear
12:15 PM 75.2 °F 42.8 °F 31% 29.98 in 10.0 mi South 11.5 mph 17.3 mph N/A   Clear
12:35 PM 75.2 °F 42.8 °F 31% 29.97 in 10.0 mi SSE 10.4 mph - N/A   Clear
12:55 PM 77.0 °F 42.8 °F 29% 29.97 in 10.0 mi South 10.4 mph - N/A   Clear
1:15 PM 77.0 °F 42.8 °F 29% 29.97 in 10.0 mi South 5.8 mph - N/A   Clear
1:35 PM 77.0 °F 42.8 °F 29% 29.97 in 10.0 mi South 6.9 mph - N/A   Clear
1:55 PM 77.0 °F 42.8 °F 29% 29.96 in 10.0 mi South 10.4 mph - N/A   Clear
2:15 PM 78.8 °F 42.8 °F 28% 29.97 in 10.0 mi South 6.9 mph - N/A   Clear
2:35 PM 78.8 °F 42.8 °F 28% 29.96 in 10.0 mi SSW 9.2 mph - N/A   Scattered Clouds
2:55 PM 78.8 °F 42.8 °F 28% 29.96 in 10.0 mi SSW 8.1 mph - N/A   Clear
3:15 PM 78.8 °F 42.8 °F 28% 29.95 in 10.0 mi WSW 6.9 mph - N/A   Clear
3:35 PM 78.8 °F 42.8 °F 28% 29.95 in 10.0 mi SSW 8.1 mph - N/A   Clear
3:55 PM 78.8 °F 42.8 °F 28% 29.94 in 10.0 mi SSE 9.2 mph - N/A   Clear
4:15 PM 80.6 °F 42.8 °F 26% 29.93 in 10.0 mi SSE 9.2 mph - N/A   Clear
4:35 PM 80.6 °F 42.8 °F 26% 29.93 in 10.0 mi South 5.8 mph - N/A   Clear
4:55 PM 80.6 °F 41.0 °F 24% 29.93 in 10.0 mi SSE 5.8 mph - N/A   Clear
5:15 PM 78.8 °F 41.0 °F 26% 29.92 in 10.0 mi SSE 5.8 mph - N/A   Clear
5:35 PM 80.6 °F 41.0 °F 24% 29.92 in 10.0 mi South 9.2 mph - N/A   Clear
5:55 PM 80.6 °F 41.0 °F 24% 29.92 in 10.0 mi SSE 8.1 mph - N/A   Clear
6:15 PM 78.8 °F 41.0 °F 26% 29.91 in 10.0 mi South 9.2 mph - N/A   Clear
6:35 PM 78.8 °F 41.0 °F 26% 29.91 in 10.0 mi South 6.9 mph - N/A   Clear
6:55 PM 77.0 °F 42.8 °F 29% 29.91 in 10.0 mi SSE 8.1 mph - N/A   Clear
7:15 PM 77.0 °F 42.8 °F 29% 29.91 in 10.0 mi SSE 8.1 mph - N/A   Clear
7:35 PM 75.2 °F 42.8 °F 31% 29.91 in 10.0 mi SSE 8.1 mph - N/A   Clear
7:55 PM 73.4 °F 42.8 °F 33% 29.91 in 10.0 mi SSE 8.1 mph - N/A   Clear
8:15 PM 71.6 °F 44.6 °F 38% 29.91 in 10.0 mi SSE 9.2 mph - N/A   Clear
8:35 PM 69.8 °F 44.6 °F 40% 29.91 in 10.0 mi South 9.2 mph - N/A   Clear
8:55 PM 68.0 °F 46.4 °F 46% 29.91 in 10.0 mi SSE 9.2 mph - N/A   Clear
9:15 PM 68.0 °F 46.4 °F 46% 29.91 in 10.0 mi SSE 9.2 mph - N/A   Clear
9:35 PM 68.0 °F 44.6 °F 43% 29.91 in 10.0 mi SE 10.4 mph - N/A   Clear
9:55 PM 68.0 °F 44.6 °F 43% 29.92 in 10.0 mi SE 11.5 mph - N/A   Clear
10:15 PM 68.0 °F 44.6 °F 43% 29.92 in 10.0 mi SE 13.8 mph 17.3 mph N/A   Clear
10:35 PM 64.4 °F 44.6 °F 49% 29.92 in 10.0 mi SSE 11.5 mph - N/A   Clear
10:55 PM 64.4 °F 44.6 °F 49% 29.92 in 10.0 mi SSE 12.7 mph - N/A   Clear
11:15 PM 64.4 °F 46.4 °F 52% 29.92 in 10.0 mi SE 10.4 mph 17.3 mph N/A   Clear
11:35 PM 62.6 °F 46.4 °F 55% 29.93 in 10.0 mi SSE 11.5 mph - N/A   Clear
11:55 PM 62.6 °F 46.4 °F 55% 29.93 in 10.0 mi SSE 9.2 mph - N/A   Clear